User: anonymous   Login
Location: Caltech
(34.1382°N, 118.1253°W)
Time: 11:56:23
(UTC-07:00)
Language:

NOSS 3-2 (A) - Orbit

View from above orbital plane
View from above orbital plane
View from above satellite
View from above satellite

Ground track
Ground track

The orbit data is extracted from the following two-line orbital elements,

1 28095U 03054A   15235.84276157 0.00000000  00000-0  00000-0 0    05
2 28095  63.4280 205.0604 0246000 357.8347   2.1653 13.41318762    08
Epoch (UTC): 23 August 2015 20:13:34
Eccentricity: 0.0246000
inclination: 63.4280°
perigee height: 920 km
apogee height: 1288 km
right ascension of ascending node: 205.0604°
argument of perigee: 357.8347°
revolutions per day: 13.41318762
mean anomaly at epoch: 2.1653°
orbit number at epoch: 0

The dashed part of the orbit path shows where the satellite is in the earth's shadow,  

DLR